Sigfox identifier Datetime Temperature Humidity SNR
002EEA5A 2019-04-23 14:59:40 15.9 33 23
002EEA5A 2019-04-23 14:24:56 15.9 33 23.1
002EEA5A 2019-04-23 13:50:13 16 33 23.1
002EEA5A 2019-04-23 13:15:29 15.7 33 22.3
002EEA5A 2019-04-23 12:40:45 15.7 33 22.2
002EEA5A 2019-04-23 12:06:02 15.7 33 22.4
002EEA5A 2019-04-23 11:31:21 15.6 33 22.5
002EEA5A 2019-04-23 10:56:37 15.6 33 22.6
002EEA5A 2019-04-23 10:21:54 15.5 33 22.6
002EEA5A 2019-04-23 09:47:10 15.6 33 22.8
002EEA5A 2019-04-23 09:12:26 15.5 33 22.9
002EEA5A 2019-04-23 08:37:41 15.5 33 22.9
002EEA5A 2019-04-23 08:02:59 15.5 33 22.9
002EEA5A 2019-04-23 07:28:14 15.5 33 22.9
002EEA5A 2019-04-23 06:53:30 15.5 33 22.9
002EEA5A 2019-04-23 06:18:46 15.5 33 23
002EEA5A 2019-04-23 05:44:03 15.5 32 23
002EEA5A 2019-04-23 05:09:19 15.5 32 22.9
002EEA5A 2019-04-23 04:34:35 15.5 32 23
002EEA5A 2019-04-23 03:59:51 15.6 32 23.1
002EEA5A 2019-04-23 03:25:07 15.5 32 23.1
002EEA5A 2019-04-23 02:50:25 15.6 32 23.2
002EEA5A 2019-04-23 02:15:42 15.6 32 23.2
002EEA5A 2019-04-23 01:40:59 15.7 32 23.2
002EEA5A 2019-04-23 01:06:15 15.7 32 23.2
002EEA5A 2019-04-23 00:31:33 15.7 32 23.3
002EEA5A 2019-04-22 23:56:49 15.7 32 23.3
002EEA5A 2019-04-22 23:22:03 15.7 32 23.2
002EEA5A 2019-04-22 22:47:19 15.7 32 23.3
002EEA5A 2019-04-22 22:12:36 15.7 32 23.2
002EEA5A 2019-04-22 21:37:52 15.7 32 23.1
002EEA5A 2019-04-22 21:03:08 15.8 32 23.1
002EEA5A 2019-04-22 20:28:24 15.8 32 23.1
002EEA5A 2019-04-22 19:53:40 15.9 32 23
002EEA5A 2019-04-22 19:18:57 15.9 32 23
002EEA5A 2019-04-22 18:44:14 15.9 32 23
002EEA5A 2019-04-22 18:09:31 15.9 32 23
002EEA5A 2019-04-22 17:34:47 15.8 32 23
002EEA5A 2019-04-22 17:00:02 15.7 32 22.8
002EEA5A 2019-04-22 16:25:18 15.7 32 22.7
002EEA5A 2019-04-22 15:50:34 15.7 32 22.6
002EEA5A 2019-04-22 15:15:50 15.7 32 22.6
002EEA5A 2019-04-22 14:41:06 15.7 32 22.6
002EEA5A 2019-04-22 14:06:22 15.7 32 22.5
002EEA5A 2019-04-22 13:31:37 15.7 32 22.4
002EEA5A 2019-04-22 12:56:54 15.6 32 22.3
002EEA5A 2019-04-22 12:22:11 15.7 32 22.3
002EEA5A 2019-04-22 11:47:25 15.6 32 22.3
002EEA5A 2019-04-22 11:12:43 15.6 32 22.2
002EEA5A 2019-04-22 10:37:59 15.5 32 23
002EEA5A 2019-04-22 10:03:17 15.5 32 23
002EEA5A 2019-04-22 09:28:33 15.6 32 23
002EEA5A 2019-04-22 08:53:49 15.5 32 23.1
002EEA5A 2019-04-22 08:19:05 15.5 32 23.1
002EEA5A 2019-04-22 07:44:22 15.5 32 23.3
002EEA5A 2019-04-22 07:09:40 15.5 32 23.3
002EEA5A 2019-04-22 06:34:57 15.5 32 23.3
002EEA5A 2019-04-22 06:00:14 15.5 32 23.3
002EEA5A 2019-04-22 05:25:32 15.5 32 23.3
002EEA5A 2019-04-22 04:50:49 15.5 31 23.3
002EEA5A 2019-04-22 04:16:06 15.5 32 23.3
002EEA5A 2019-04-22 03:41:23 15.5 31 23.3
002EEA5A 2019-04-22 03:06:37 15.5 32 23.5
002EEA5A 2019-04-22 02:31:55 15.5 31 23.5
002EEA5A 2019-04-22 01:57:11 15.5 31 23.5
002EEA5A 2019-04-22 01:22:28 15.5 31 23.5
002EEA5A 2019-04-22 00:47:44 15.5 31 23.6
002EEA5A 2019-04-22 00:13:01 15.5 31 24.2
002EEA5A 2019-04-21 23:38:18 15.5 31 24.2
002EEA5A 2019-04-21 23:03:35 15.5 31 24.2
002EEA5A 2019-04-21 22:28:52 15.5 31 24.2
002EEA5A 2019-04-21 21:54:08 15.5 31 24.3
002EEA5A 2019-04-21 21:19:24 15.5 31 24.3
002EEA5A 2019-04-21 20:44:40 15.4 31 23.8
002EEA5A 2019-04-21 20:09:57 15.5 31 23.8
002EEA5A 2019-04-21 19:35:12 15.4 31 23.8
002EEA5A 2019-04-21 19:00:28 15.5 31 23.7
002EEA5A 2019-04-21 18:25:43 15.4 31 23.8
002EEA5A 2019-04-21 17:50:59 15.4 31 23.7
002EEA5A 2019-04-21 17:16:15 15.3 31 23.7
002EEA5A 2019-04-21 16:41:31 15.3 31 23.7
002EEA5A 2019-04-21 16:06:47 15.3 31 23.7
002EEA5A 2019-04-21 15:32:03 15.3 31 23.7
002EEA5A 2019-04-21 14:57:18 15.3 31 23.6
002EEA5A 2019-04-21 14:22:34 15.4 31 23.6
002EEA5A 2019-04-21 13:47:51 15.3 31 23.5
002EEA5A 2019-04-21 13:13:06 15.3 31 23.5
002EEA5A 2019-04-21 12:38:21 15.5 31 23.5
002EEA5A 2019-04-21 12:03:35 15.4 31 23.5
002EEA5A 2019-04-21 11:28:51 15.5 31 23.4
002EEA5A 2019-04-21 10:54:08 15.5 31 23.5
002EEA5A 2019-04-21 10:19:25 15.6 31 23.5
002EEA5A 2019-04-21 09:44:42 15.5 31 22.8
002EEA5A 2019-04-21 09:09:59 15.6 31 22.8
002EEA5A 2019-04-21 08:35:15 15.6 31 22.8
002EEA5A 2019-04-21 08:00:31 15.5 31 22.7
002EEA5A 2019-04-21 07:25:48 15.6 31 22.7
002EEA5A 2019-04-21 06:51:05 15.5 31 22.7
002EEA5A 2019-04-21 06:16:21 15.5 30 22.6
002EEA5A 2019-04-21 05:41:37 15.5 30 22.7
002EEA5A 2019-04-21 05:06:53 15.5 30 22.7
002EEA5A 2019-04-21 04:32:08 15.5 30 22.7
002EEA5A 2019-04-21 03:57:25 15.5 30 22.7
002EEA5A 2019-04-21 03:22:41 15.5 30 22.7
002EEA5A 2019-04-21 02:47:58 15.5 30 22.7
002EEA5A 2019-04-21 02:13:15 15.6 30 22.7
002EEA5A 2019-04-21 01:38:31 15.5 30 22.7
002EEA5A 2019-04-21 01:03:46 15.5 30 22.6
002EEA5A 2019-04-21 00:29:03 15.5 30 22.6
002EEA5A 2019-04-20 23:54:22 15.5 30 22.6
002EEA5A 2019-04-20 23:19:36 15.5 30 22.7
002EEA5A 2019-04-20 22:44:52 15.5 30 22.7
002EEA5A 2019-04-20 22:10:08 15.5 30 22.7
002EEA5A 2019-04-20 21:35:24 15.5 30 22.7
002EEA5A 2019-04-20 21:00:41 15.6 30 22.8
002EEA5A 2019-04-20 20:25:56 15.5 30 22.8
002EEA5A 2019-04-20 19:51:12 15.5 30 22.8
002EEA5A 2019-04-20 19:16:30 15.5 30 22.7
002EEA5A 2019-04-20 18:41:47 15.6 30 22.7
002EEA5A 2019-04-20 18:07:04 15.5 30 22.6
002EEA5A 2019-04-20 17:32:20 15.5 30 22.5
002EEA5A 2019-04-20 16:57:38 15.5 30 22.5
002EEA5A 2019-04-20 16:22:54 15.5 30 22.4
002EEA5A 2019-04-20 15:48:09 15.5 30 22.6
002EEA5A 2019-04-20 15:13:25 15.5 30 22.5
002EEA5A 2019-04-20 14:38:42 15.5 30 22.4
002EEA5A 2019-04-20 14:03:59 15.5 30 22.5
002EEA5A 2019-04-20 13:29:16 15.5 29 22.4
002EEA5A 2019-04-20 12:54:33 15.5 29 22.4
002EEA5A 2019-04-20 12:19:49 15.6 29 22.1
002EEA5A 2019-04-20 11:45:06 15.5 29 22.2
002EEA5A 2019-04-20 11:10:22 15.5 29 22
002EEA5A 2019-04-20 10:35:38 15.6 29 22.1
002EEA5A 2019-04-20 10:00:54 15.6 29 22.1
002EEA5A 2019-04-20 09:26:10 15.6 29 22
002EEA5A 2019-04-20 08:51:26 15.7 29 22
002EEA5A 2019-04-20 08:16:43 15.7 29 21.9
002EEA5A 2019-04-20 07:42:00 15.7 29 22
002EEA5A 2019-04-20 07:07:16 15.7 29 22
002EEA5A 2019-04-20 06:32:33 15.8 29 22
002EEA5A 2019-04-20 05:57:46 15.7 29 22
002EEA5A 2019-04-20 05:23:01 15.8 29 22.1
002EEA5A 2019-04-20 04:48:17 15.7 29 22.1
002EEA5A 2019-04-20 04:13:33 15.8 29 22.3
002EEA5A 2019-04-20 03:38:48 15.8 29 22.3
002EEA5A 2019-04-20 03:04:03 15.8 29 22.4
002EEA5A 2019-04-20 02:29:19 15.9 29 22.4
002EEA5A 2019-04-20 01:54:35 16 29 22.5
002EEA5A 2019-04-20 01:19:52 16 29 22.5
002EEA5A 2019-04-20 00:45:09 16 29 22.6
002EEA5A 2019-04-20 00:10:24 16 29 22.6
002EEA5A 2019-04-19 23:35:42 15.9 29 22.5
002EEA5A 2019-04-19 23:00:57 16 29 22.5
002EEA5A 2019-04-19 22:26:14 16 29 22.8
002EEA5A 2019-04-19 21:51:28 16 29 22.7
002EEA5A 2019-04-19 21:16:43 16.1 29 22.9
002EEA5A 2019-04-19 20:41:59 16 29 22.9
002EEA5A 2019-04-19 20:07:15 16.1 29 22.9
002EEA5A 2019-04-19 19:32:30 16.1 29 23
002EEA5A 2019-04-19 18:57:45 16.1 29 23
002EEA5A 2019-04-19 18:23:02 16.1 29 23
002EEA5A 2019-04-19 17:48:19 16 29 23
002EEA5A 2019-04-19 17:13:35 16 29 23
002EEA5A 2019-04-19 16:38:52 15.9 28 22.8
002EEA5A 2019-04-19 16:04:08 15.9 28 22.8
002EEA5A 2019-04-19 15:29:24 16 28 22.7
002EEA5A 2019-04-19 14:54:40 15.9 28 22.7
002EEA5A 2019-04-19 14:19:55 15.9 28 22.5
002EEA5A 2019-04-19 13:45:12 15.8 28 22.4
002EEA5A 2019-04-19 13:10:29 15.8 28 22.4
002EEA5A 2019-04-19 12:35:45 15.8 28 22.2
002EEA5A 2019-04-19 12:01:03 15.8 28 22.2
002EEA5A 2019-04-19 11:26:22 15.8 28 22.1
002EEA5A 2019-04-19 10:51:41 15.8 28 22.1
002EEA5A 2019-04-19 10:16:59 15.8 28 22.1
002EEA5A 2019-04-19 09:42:17 15.7 28 22.1
002EEA5A 2019-04-19 09:07:36 15.8 28 22.1
002EEA5A 2019-04-19 08:32:56 15.9 28 22
002EEA5A 2019-04-19 07:58:13 15.9 28 21.8
002EEA5A 2019-04-19 07:23:31 15.9 28 21.6
002EEA5A 2019-04-19 06:48:50 15.9 28 21.5
002EEA5A 2019-04-19 06:14:08 16 28 21.4
002EEA5A 2019-04-19 05:39:25 16 28 21.3
002EEA5A 2019-04-19 05:04:43 16 28 21.3
002EEA5A 2019-04-19 04:30:01 15.9 28 21.4
002EEA5A 2019-04-19 03:55:19 16 28 21.4
002EEA5A 2019-04-19 03:20:36 16.2 28 21.4
002EEA5A 2019-04-19 02:45:53 16.1 27 21.3
002EEA5A 2019-04-19 02:11:09 16.1 27 21.4
002EEA5A 2019-04-19 01:36:25 16.2 27 21.2
002EEA5A 2019-04-19 01:01:42 16.3 27 21.1
002EEA5A 2019-04-19 00:26:58 16.4 27 21.1
002EEA5A 2019-04-18 23:52:17 16.4 27 21.3
002EEA5A 2019-04-18 23:17:36 16.5 27 21.5
002EEA5A 2019-04-18 22:42:56 16.4 27 22.5
002EEA5A 2019-04-18 22:08:12 16.5 27 22.4
002EEA5A 2019-04-18 21:33:29 16.5 27 22.3
002EEA5A 2019-04-18 20:58:48 16.6 27 22.3
002EEA5A 2019-04-18 20:24:08 16.6 27 22.2
002EEA5A 2019-04-18 19:49:26 16.5 27 22.1
002EEA5A 2019-04-18 19:14:46 16.6 27 22
002EEA5A 2019-04-18 18:40:07 16.5 27 22
002EEA5A 2019-04-18 18:05:26 16.4 27 22
002EEA5A 2019-04-18 17:30:42 16.4 27 22.1
002EEA5A 2019-04-18 16:56:00 16.4 27 22.1
002EEA5A 2019-04-18 16:21:17 16.4 27 22.1
002EEA5A 2019-04-18 15:46:34 16.3 27 21.9
002EEA5A 2019-04-18 15:11:50 16.2 27 21.8
002EEA5A 2019-04-18 14:37:08 16.2 27 21.6
002EEA5A 2019-04-18 14:02:26 16.2 27 21.6
002EEA5A 2019-04-18 13:27:42 16.1 27 21.5
002EEA5A 2019-04-18 12:52:59 16.2 27 21.5
002EEA5A 2019-04-18 12:18:14 16.1 26 21.6
002EEA5A 2019-04-18 11:43:31 16.2 26 21.6
002EEA5A 2019-04-18 11:08:49 16.2 26 21.4
002EEA5A 2019-04-18 10:34:06 16.1 26 21.2
002EEA5A 2019-04-18 09:59:24 16.1 26 21
002EEA5A 2019-04-18 09:24:44 16.2 26 20.9
002EEA5A 2019-04-18 08:50:02 16.2 26 19.3
002EEA5A 2019-04-18 08:15:21 16.2 26 19.3
002EEA5A 2019-04-18 07:40:38 16.2 26 19.4
002EEA5A 2019-04-18 07:05:57 16.2 26 19.3
002EEA5A 2019-04-18 06:31:15 16.2 26 19.2
002EEA5A 2019-04-18 05:56:33 16.2 26 19.2
002EEA5A 2019-04-18 05:21:52 16.2 26 19.3
002EEA5A 2019-04-18 04:47:10 16.2 26 19.5
002EEA5A 2019-04-18 04:12:28 16.2 26 19.8
002EEA5A 2019-04-18 03:37:48 16.3 26 19.6
002EEA5A 2019-04-18 03:03:05 16.3 26 19.6
002EEA5A 2019-04-18 02:28:23 16.4 25 19.6
002EEA5A 2019-04-18 01:53:43 16.4 25 19.5
002EEA5A 2019-04-18 01:18:59 16.6 25 19.6
002EEA5A 2019-04-18 00:44:18 16.6 25 19.7
002EEA5A 2019-04-18 00:09:37 16.6 25 19.8
002EEA5A 2019-04-17 23:34:55 16.6 25 19.8
002EEA5A 2019-04-17 23:00:13 16.6 25 19.9
002EEA5A 2019-04-17 22:25:31 16.6 25 19.8
002EEA5A 2019-04-17 21:50:49 16.6 25 20
002EEA5A 2019-04-17 21:16:07 16.6 25 20
002EEA5A 2019-04-17 20:41:27 16.6 25 20.1
002EEA5A 2019-04-17 20:06:41 16.6 25 20.1
002EEA5A 2019-04-17 19:31:59 16.6 25 20.2
002EEA5A 2019-04-17 18:57:18 16.6 25 20.3
002EEA5A 2019-04-17 18:22:37 16.6 25 20.5
002EEA5A 2019-04-17 17:47:56 16.6 25 20.6
002EEA5A 2019-04-17 17:13:14 16.6 25 20.6
002EEA5A 2019-04-17 16:38:33 16.6 25 20.7
002EEA5A 2019-04-17 16:03:51 16.6 24 20.8
002EEA5A 2019-04-17 15:29:09 16.6 24 20.7
002EEA5A 2019-04-17 14:54:26 16.8 24 20.7
002EEA5A 2019-04-17 14:19:45 16.8 24 20.7
002EEA5A 2019-04-17 13:45:03 16.8 24 20.8
002EEA5A 2019-04-17 13:10:20 16.8 24 21
002EEA5A 2019-04-17 12:35:38 16.8 24 20.9
002EEA5A 2019-04-17 12:00:57 16.8 24 20.8
002EEA5A 2019-04-17 11:26:15 16.8 24 20.7
002EEA5A 2019-04-17 10:51:33 16.8 24 20.5
002EEA5A 2019-04-17 10:16:52 17 24 20.4
002EEA5A 2019-04-17 09:42:11 17.1 24 20.3
002EEA5A 2019-04-17 09:07:31 17.2 24 21.6
002EEA5A 2019-04-17 08:32:50 17.3 23 21.5
002EEA5A 2019-04-17 07:58:09 17.5 23 22.5
002EEA5A 2019-04-17 07:23:28 17.5 24 22.6
002EEA5A 2019-04-17 06:48:47 17.7 24 22.6
002EEA5A 2019-04-17 06:14:07 17.7 24 22.7
002EEA5A 2019-04-17 05:39:25 17.7 24 22.6
002EEA5A 2019-04-17 05:04:43 17.8 23 22.5
002EEA5A 2019-04-17 04:30:02 17.9 23 22.5
002EEA5A 2019-04-17 03:55:20 17.9 23 22.4
002EEA5A 2019-04-17 03:20:40 17.9 23 22.3
002EEA5A 2019-04-17 02:45:58 18 23 22.3
002EEA5A 2019-04-17 02:11:17 18 23 22.2
002EEA5A 2019-04-17 01:36:36 18.1 23 22.1
002EEA5A 2019-04-17 01:01:55 18 23 22.1
002EEA5A 2019-04-17 00:27:15 18.1 23 22
002EEA5A 2019-04-16 23:52:34 18.1 23 21.8
002EEA5A 2019-04-16 23:17:52 18.3 22 21.9
002EEA5A 2019-04-16 22:43:13 18.6 22 21.8
002EEA5A 2019-04-16 22:08:32 18.7 23 21.9
002EEA5A 2019-04-16 21:33:51 19 23 22
002EEA5A 2019-04-16 20:59:11 19 23 22.1
002EEA5A 2019-04-16 19:49:51 19.2 23 22.2
002EEA5A 2019-04-16 19:15:11 19.4 22 22.3
002EEA5A 2019-04-16 18:40:31 19.4 22 22.4
002EEA5A 2019-04-16 18:05:51 19.6 22 21.5
002EEA5A 2019-04-16 17:31:10 19.8 22 21.4
002EEA5A 2019-04-16 16:56:30 20 22 20.2
002EEA5A 2019-04-16 15:47:06 20.4 22 20.1
002EEA5A 2019-04-16 15:12:23 20.7 22 20.1
002EEA5A 2019-04-16 14:37:42 20.9 22 19.9
002EEA5A 2019-04-16 14:02:59 20.9 23 20.1
002EEA5A 2019-04-16 13:28:18 20.9 23 20.3
002EEA5A 2019-04-16 12:53:37 20.9 23 20.4
002EEA5A 2019-04-16 12:18:57 20.9 23 20.9
002EEA5A 2019-04-16 11:44:15 20.9 23 21.1
002EEA5A 2019-04-16 11:09:36 20.9 23 21.3
002EEA5A 2019-04-16 10:34:54 20.9 23 21.4
002EEA5A 2019-04-16 10:00:12 20.9 22 21.5
002EEA5A 2019-04-16 09:25:32 20.9 22 21.5
002EEA5A 2019-04-16 08:50:51 20.9 22 21.6
002EEA5A 2019-04-16 08:16:12 20.9 22 21.5
002EEA5A 2019-04-16 07:41:31 20.9 22 21.6
002EEA5A 2019-04-16 07:06:50 20.9 22 21.6
002EEA5A 2019-04-16 06:32:10 20.9 22 21.5
002EEA5A 2019-04-16 05:57:29 20.9 22 21.7
002EEA5A 2019-04-16 05:22:50 20.9 22 21.6
002EEA5A 2019-04-16 04:48:09 20.9 22 21.5
002EEA5A 2019-04-16 04:13:29 20.9 22 21.5
002EEA5A 2019-04-16 03:38:47 20.9 22 22.4
002EEA5A 2019-04-16 03:04:08 20.9 22 22.4
002EEA5A 2019-04-16 02:29:28 20.9 22 22.4
002EEA5A 2019-04-16 01:54:47 20.9 22 22.3
002EEA5A 2019-04-16 01:20:06 20.9 22 22.5
002EEA5A 2019-04-16 00:45:25 21 21 22.6
002EEA5A 2019-04-16 00:10:45 20.9 21 22.6
002EEA5A 2019-04-15 23:36:06 20.9 21 22.6
002EEA5A 2019-04-15 23:01:27 21.1 21 22.6
002EEA5A 2019-04-15 22:26:47 21 21 22.5
002EEA5A 2019-04-15 21:52:07 21.1 21 22.5
002EEA5A 2019-04-15 21:17:26 21.1 21 22.4
002EEA5A 2019-04-15 20:42:47 21.1 21 22.4
002EEA5A 2019-04-15 20:08:05 21.1 21 22.5
002EEA5A 2019-04-15 19:33:23 21.1 21 22.5
002EEA5A 2019-04-15 18:58:43 21.1 20 22.6
002EEA5A 2019-04-15 18:24:03 21.3 20 22.6
002EEA5A 2019-04-15 17:49:23 21.3 20 22.6
002EEA5A 2019-04-15 17:14:43 21.3 20 23.4
002EEA5A 2019-04-15 16:40:02 21.4 20 23.4
002EEA5A 2019-04-15 16:05:21 21.5 20 23.4
002EEA5A 2019-04-15 15:30:41 21.6 20 23.4
002EEA5A 2019-04-15 14:56:02 21.7 20 23.4
002EEA5A 2019-04-15 14:21:21 21.9 19 23.5
002EEA5A 2019-04-15 13:46:41 22 19 23.5
002EEA5A 2019-04-15 13:12:00 22.2 19 22.8
002EEA5A 2019-04-15 12:37:20 22.2 19 22.8
002EEA5A 2019-04-15 12:02:41 22.4 18 22.8
002EEA5A 2019-04-15 11:28:02 22.3 17 22.9
002EEA5A 2019-04-15 10:53:21 22.2 18 22.8
002EEA5A 2019-04-15 10:18:41 22.2 18 22.7
002EEA5A 2019-04-15 09:44:00 22.2 18 22.8
002EEA5A 2019-04-15 09:09:21 22.1 18 22.8
002EEA5A 2019-04-15 08:34:40 22 18 22.8
002EEA5A 2019-04-15 08:00:00 21.9 18 22.8
002EEA5A 2019-04-15 07:25:21 21.9 18 22.8
002EEA5A 2019-04-15 06:50:40 21.8 18 22.8
002EEA5A 2019-04-15 06:15:58 21.8 18 22.8
002EEA5A 2019-04-15 05:41:17 21.8 18 22.7
002EEA5A 2019-04-15 05:06:38 21.8 18 22.8
002EEA5A 2019-04-15 04:31:57 21.8 18 22.8
002EEA5A 2019-04-15 03:57:17 21.8 18 22.8
002EEA5A 2019-04-15 03:22:37 21.8 18 22.9
002EEA5A 2019-04-15 02:47:54 21.8 18 22.1
002EEA5A 2019-04-15 02:13:13 21.8 18 22.2
002EEA5A 2019-04-15 01:38:31 21.8 18 22.2
002EEA5A 2019-04-15 01:03:48 21.8 18 22.3
002EEA5A 2019-04-15 00:29:06 21.7 19 22.4
002EEA5A 2019-04-14 23:54:24 21.8 19 22.4
002EEA5A 2019-04-14 23:19:43 21.8 19 22.4
002EEA5A 2019-04-14 22:45:00 21.8 19 22.4
002EEA5A 2019-04-14 22:10:18 21.9 19 22.5
002EEA5A 2019-04-14 21:35:34 21.9 19 22.5
002EEA5A 2019-04-14 21:00:52 21.9 19 22.4
002EEA5A 2019-04-14 20:26:10 21.9 19 22.3
002EEA5A 2019-04-14 19:51:28 21.9 19 22.4
002EEA5A 2019-04-14 19:16:47 21.9 19 22.4
002EEA5A 2019-04-14 18:42:05 21.9 19 22.3
002EEA5A 2019-04-14 18:07:23 21.9 19 22.4
002EEA5A 2019-04-14 17:32:40 21.9 19 22.3
002EEA5A 2019-04-14 16:57:58 21.9 19 22.3
002EEA5A 2019-04-14 16:23:15 21.9 19 22.4
002EEA5A 2019-04-14 15:48:33 21.9 19 22.4
002EEA5A 2019-04-14 15:13:52 21.9 19 22.4
002EEA5A 2019-04-14 14:39:11 21.9 19 22.3
002EEA5A 2019-04-14 14:04:28 21.9 19 22.4
002EEA5A 2019-04-14 13:29:46 21.9 19 22.4
002EEA5A 2019-04-14 12:55:04 21.9 19 22.3
002EEA5A 2019-04-14 12:20:22 21.9 19 22.2
002EEA5A 2019-04-14 11:45:41 21.9 19 22.2
002EEA5A 2019-04-14 11:10:59 21.9 19 22.2
002EEA5A 2019-04-14 10:36:17 21.9 19 22.3
002EEA5A 2019-04-14 10:01:36 21.9 19 22.1
002EEA5A 2019-04-14 09:26:55 21.9 19 22.2
002EEA5A 2019-04-14 08:52:14 21.9 19 22.1
002EEA5A 2019-04-14 08:17:32 21.9 19 22.1
002EEA5A 2019-04-14 07:42:50 21.9 19 22.9
002EEA5A 2019-04-14 07:08:07 21.9 19 22.9
002EEA5A 2019-04-14 06:33:25 21.9 19 23
002EEA5A 2019-04-14 05:58:44 21.9 19 23.7
002EEA5A 2019-04-14 05:24:03 21.9 19 23.7
002EEA5A 2019-04-14 04:49:22 21.9 19 23.7
002EEA5A 2019-04-14 04:14:40 21.9 19 23.7
002EEA5A 2019-04-14 03:39:58 21.9 19 23.7
002EEA5A 2019-04-14 03:05:18 21.9 19 23.7
002EEA5A 2019-04-14 02:30:38 21.9 19 23.7
002EEA5A 2019-04-14 01:55:56 21.9 19 23.6
002EEA5A 2019-04-14 01:21:17 21.9 19 23.6
002EEA5A 2019-04-14 00:46:36 21.9 19 23.5
002EEA5A 2019-04-14 00:11:54 22 19 23.5
002EEA5A 2019-04-13 23:37:12 22 19 23.5
002EEA5A 2019-04-13 23:02:30 22 19 23.6
002EEA5A 2019-04-13 22:27:48 22 18 23.6
002EEA5A 2019-04-13 21:53:06 22 18 23.5
002EEA5A 2019-04-13 21:18:25 22.1 18 23.5
002EEA5A 2019-04-13 20:43:43 22.1 18 23.6
002EEA5A 2019-04-13 20:09:02 22.2 18 23.6
002EEA5A 2019-04-13 19:34:19 22.2 18 23.7
002EEA5A 2019-04-13 18:59:38 22.2 18 23.6
002EEA5A 2019-04-13 18:24:56 22.2 18 23.6
002EEA5A 2019-04-13 17:50:14 22.2 19 23.6
002EEA5A 2019-04-13 17:15:30 22.2 19 23.6
002EEA5A 2019-04-13 16:40:48 22.2 19 23.6
002EEA5A 2019-04-13 16:06:06 22.3 19 23.7
002EEA5A 2019-04-13 15:31:23 22.3 19 23
002EEA5A 2019-04-13 14:56:42 22.3 19 22.9
002EEA5A 2019-04-13 14:22:01 22.3 19 22.8
002EEA5A 2019-04-13 13:47:18 22.4 19 22.9
002EEA5A 2019-04-13 13:12:36 22.4 19 22.8
002EEA5A 2019-04-13 12:37:54 22.4 18 22.9
002EEA5A 2019-04-13 12:03:11 22.4 19 23
002EEA5A 2019-04-13 11:28:29 22.4 19 23
002EEA5A 2019-04-13 10:53:45 22.4 19 23
002EEA5A 2019-04-13 10:19:03 22.4 18 23.1
002EEA5A 2019-04-13 09:44:20 22.4 18 23.1
002EEA5A 2019-04-13 09:09:37 22.3 18 23.6
002EEA5A 2019-04-13 08:34:55 22.3 18 23.5
002EEA5A 2019-04-13 08:00:11 22.3 18 23.5
002EEA5A 2019-04-13 07:25:28 22.3 18 23.6
002EEA5A 2019-04-13 06:50:45 22.3 18 23.6
002EEA5A 2019-04-13 06:16:02 22.4 18 23.5
002EEA5A 2019-04-13 05:41:20 22.3 18 23.4
002EEA5A 2019-04-13 05:06:37 22.4 18 23.3
002EEA5A 2019-04-13 04:31:54 22.4 18 24
002EEA5A 2019-04-13 03:57:10 22.4 18 24
002EEA5A 2019-04-13 03:22:26 22.4 18 24
002EEA5A 2019-04-13 02:47:46 22.4 18 23.4
002EEA5A 2019-04-13 02:13:03 22.4 18 23.5
002EEA5A 2019-04-13 01:38:20 22.5 19 23.5
002EEA5A 2019-04-13 01:03:38 22.6 19 23.6
002EEA5A 2019-04-13 00:28:56 22.6 19 23.8
002EEA5A 2019-04-12 23:54:13 22.6 19 23.9
002EEA5A 2019-04-12 23:19:31 22.6 19 23.9
002EEA5A 2019-04-12 22:44:48 22.6 19 24
002EEA5A 2019-04-12 22:10:05 22.8 19 24.1
002EEA5A 2019-04-12 21:35:22 22.8 19 24.1
002EEA5A 2019-04-12 21:00:40 22.8 20 24.2
002EEA5A 2019-04-12 20:25:58 22.8 19 24.4
002EEA5A 2019-04-12 19:51:16 22.8 19 24.5
002EEA5A 2019-04-12 19:16:32 22.8 19 24.7
002EEA5A 2019-04-12 18:41:50 23 18 23.5
002EEA5A 2019-04-12 18:07:07 23 18 23.7
002EEA5A 2019-04-12 17:32:25 23.1 18 23.9
002EEA5A 2019-04-12 16:57:44 23.1 19 24.2
002EEA5A 2019-04-12 16:23:04 23 19 24.4
002EEA5A 2019-04-12 15:48:22 23 19 24.8
002EEA5A 2019-04-12 15:13:40 22.8 19 25.3
002EEA5A 2019-04-12 14:38:58 22.5 20 26.3
002EEA5A 2019-04-12 14:04:16 22.2 21 21.3
002EEA5A 2019-04-12 13:29:33 21.5 23 21.8
002EEA5A 2019-04-12 12:54:50 20.4 29 0